Regional Weather Roundup
Issued by NWS Upton, NY

Current Version | Previous Version | Graphics & Text | Print | Product List | Glossary Off
Versions: 1 2 3 4 5 6 7 8 9 10 11 12 13 14 15 16 17 18 19 20 21 22 23 24 25 26 27

000
ASUS41 KOKX 292004
RWROKX

REGIONAL WEATHER ROUNDUP
NATIONAL WEATHER SERVICE NEW YORK NY
400 PM EDT FRI APR 29 2016

NOTE: "FAIR" INDICATES FEW OR NO CLOUDS BELOW 12,000 FEET WITH NO
SIGNIFICANT WEATHER AND/OR OBSTRUCTIONS TO VISIBILITY.

NYZ071-072-176-178-NJZ106-104-292100-
NEW YORK CITY METRO AREA


CITY           SKY/WX    TMP DP  RH WIND       PRES   REMARKS
CENTRAL PARK   CLOUDY    55  34  45 NE8       30.11R
LAGUARDIA APRT CLOUDY    55  37  50 E12G21    30.09R
KENNEDY INTL   PTSUNNY   54  25  32 E14       30.10S
NEWARK/LIBERTY CLOUDY    54  27  35 SE9G17    30.08S
BRNX BOT. GARD   N/A     52  37  58 E9        30.12R
TETERBORO      CLOUDY    55  33  43 E8        30.08R
$$

NYZ177-179-078>081-292100-
LONG ISLAND NEW YORK

CITY           SKY/WX    TMP DP  RH WIND       PRES   REMARKS
FARMINGDALE    PTSUNNY   53  30  41 SE15      30.09S
ISLIP          PTSUNNY   54  28  36 SE14      30.08S
SHIRLEY        PTSUNNY   55  28  35 E9        30.09S
RIVERHEAD        N/A     54  34  47 S3        30.09S
WESTHAMPTON    CLOUDY    49  31  49 E10G16    30.11R
EAST HAMPTON   CLOUDY    50  32  51 E12G20    30.10S
MONTAUK POINT    N/A     49  34  56 E10       30.13S
$$

NYZ052-065-067-292100-
HUDSON VALLEY

CITY           SKY/WX    TMP DP  RH WIND       PRES   REMARKS
WHITE PLAINS   CLOUDY    53  34  48 E10       30.08S
NEWBURGH       NOT AVBL
MONTGOMERY     CLOUDY    57  33  40 S7        30.06S
POUGHKEEPSIE   CLOUDY    58  30  34 SE8       30.06F
ALBANY         CLOUDY    58  36  43 SW9       30.06S
$$

NJZ001-105-106-008-010-013-015-019>022-104-292100-
NEW JERSEY

CITY           SKY/WX    TMP DP  RH WIND       PRES   REMARKS
NEWARK/LIBERTY CLOUDY    54  27  35 SE9G17    30.08S
TETERBORO      CLOUDY    55  33  43 E8        30.08R
CALDWELL       CLOUDY    55  31  39 E7        30.08S
MORRISTOWN     NOT AVBL
SOMERVILLE     CLOUDY    52  37  56 VRB6      30.05F
SUSSEX         LGT RAIN  52  35  52 N5        30.07F
ANDOVER          N/A     52  32  46 NE6       30.06F
TRENTON        CLOUDY    50  39  66 E7        30.06F
MILLVILLE      CLOUDY    50  46  86 NE8       30.06R
ATLANTIC CITY  LGT RAIN  49  47  93 NE12      30.05S FOG
WRIGHTSTOWN    LGT RAIN  48  45  87 E8        30.04F FOG
TOMS RIVER     CLOUDY    48  39  71 E9        30.09R
BELMAR         CLOUDY    48  41  76 NE7       30.11R
$$

PAZ047>061-062-071-292100-
EASTERN PENNSYLVANIA

CITY           SKY/WX    TMP DP  RH WIND       PRES   REMARKS
PHILADELPHIA   CLOUDY    51  41  68 NE8       30.08S
ALLENTOWN      CLOUDY    50  41  71 E6        30.07S
SCRANTON       CLOUDY    52  35  52 CALM      30.03F
$$

CTZ002-004>006-009-010-012-RIZ004-006-007-MAZ004-011-015-292100-
SOUTHERN NEW ENGLAND
 IN CT

CITY           SKY/WX    TMP DP  RH WIND       PRES   REMARKS
BRADLEY INTL   CLOUDY    58  36  43 SW8       30.07S
HARTFORD       MOSUNNY   59  37  44 SW5       30.08S
DANBURY        CLOUDY    53  31  42 S6        30.09F
WTRBRY/OXFORD  CLOUDY    54  32  43 SE8       30.10R
BRIDGEPORT     CLOUDY    52  39  61 E13       30.11S
MERIDEN        CLOUDY    56  35  45 SW10      30.09R
NEW HAVEN      PTSUNNY   49  37  63 E14       30.11R
CHESTER        MOCLDY    52  34  50 S10       30.10R
GROTON         MOSUNNY   50  36  58 SE14G22   30.12R
WILLIMANTIC    PTSUNNY   58  32  37 S8        30.08S

 IN RI

CITY           SKY/WX    TMP DP  RH WIND       PRES   REMARKS
PROVIDENCE     PTSUNNY   53  32  44 S9        30.11F
BLOCK ISLAND   SUNNY     48  35  60 E15       30.12F
WESTERLY       SUNNY     50  34  54 SE12      30.12F

 IN MA

CITY           SKY/WX    TMP DP  RH WIND       PRES   REMARKS
BOSTON         MOSUNNY   49  36  61 E20       30.13F
WORCESTER      PTSUNNY   54  29  38 VRB3      30.06F
WESTFIELD      CLOUDY    59  35  40 S9G16     30.06S
PROVINCETOWN   SUNNY     50  30  46 E10       30.14F
NANTUCKET      CLOUDY    49  35  58 E15       30.12F
$$

ANZ330-335-338-340-345-350-353-355-292100-
COASTAL MARINE OBSERVATIONS


STATION/POSITION TIME  SKY/WX   TEMP    WIND        PRES    VSBY  WAVE
                                AIR SEA DIR/SP/G                  HT/PER
                 (UTC)          (F)     (DEG/KT/KT) (MB)    (MI)  (FT/S)
NY HARB ENTRANCE 1850            48 51   80/ 16/ 19 1018.1          5/ 6
20S FIRE ISLAND  1850            47 49   70/ 17/ 21 1017.7          7/ 7
GREAT SOUTH BAY  1915            49 58   90/ 16/ 19   N/A
23 SSW MONTAUK P 1950            45 47   80/ 17/ 19 1018.4          6/ 7
15 E BARNEGAT LI 1922               51                N/A           6/ 7
HUDSON CANYON    1850            50 51              1016.1          7/ 7
KINGS POINT      1900            55 53              1018.4
EXECUTION ROCKS  NOT AVBL
CENTRAL LI SOUND 1900            47     100/ 16/ 17   N/A           2/ 4
EASTERN LI SOUND 1900            47 47  100/ 14/ 19   N/A
ROBBINS REEF     1900            52     130/ 17/ 21 1017.9
$$


>>>>>>>>>>>>>>>>>>>>>>>>>>>> KEY <<<<<<<<<<<<<<<<<<<<<<<<<<<
>                                                          <
>     SKY/WX - SKY CONDITION/PRESENT WEATHER               <
>     TMP    - TEMPERATURE IN FAHRENHEIT                   <
>     DP     - DEWPOINT IN FAHRENHEIT                      <
>     RH     - RELATIVE HUMIDITY IN PERCENT                <
>     WIND   - DIRECTION AND SPEED IN MPH                  <
>     PRES   - MEAN SEA LEVEL PRESSURE IN INCHES OF HG     <
>     WCI    - WIND CHILL INDEX                            <
>     VSB    - VISIBILITY IN MILES                         <
>     HX     - HEAT INDEX                                  <
>     TC     - TEMPERATURE IN CELSIUS                      <
>     VRB    - VARIABLE WIND DIRECTION                     <
>                                                          <
>>>>>>>>>>>>>>>>>>>>>>>>>>>> KEY <<<<<<<<<<<<<<<<<<<<<<<<<<<






USA.gov is the U.S. government's official web portal to all federal, state and local government web resources and services.